Time,TemperatureF,DewpointF,PressureIn,WindDirection,WindDirectionDegrees,WindSpeedMPH,WindSpeedGustMPH,Humidity,HourlyPrecipIn,Conditions,Clouds,dailyrainin,SoftwareType,DateUTC
2013-01-28 00:03:00,52.4,38.9,29.93,West,269,2.0,8.0,60,0.00,,,0.00,Wunderground v.1.15,2013-01-28 07:03:00,
2013-01-28 00:08:00,52.0,39.4,29.93,SW,229,12.0,12.0,62,0.00,,,0.00,Wunderground v.1.15,2013-01-28 07:08:00,
2013-01-28 00:13:00,51.7,39.5,29.92,SSE,167,1.0,8.0,63,0.00,,,0.00,Wunderground v.1.15,2013-01-28 07:13:00,
2013-01-28 00:18:00,51.6,39.4,29.92,West,259,5.0,11.0,63,0.00,,,0.00,Wunderground v.1.15,2013-01-28 07:18:00,
2013-01-28 00:23:00,51.6,39.0,29.93,WSW,242,6.0,13.0,62,0.00,,,0.00,Wunderground v.1.15,2013-01-28 07:23:00,
2013-01-28 00:28:00,51.7,38.7,29.93,SSW,213,5.0,13.0,61,0.00,,,0.00,Wunderground v.1.15,2013-01-28 07:28:00,
2013-01-28 00:33:00,51.7,39.1,29.93,WNW,297,3.0,9.0,62,0.00,,,0.00,Wunderground v.1.15,2013-01-28 07:33:00,
2013-01-28 00:38:00,51.6,39.0,29.94,SSW,201,4.0,9.0,62,0.00,,,0.00,Wunderground v.1.15,2013-01-28 07:38:00,
2013-01-28 00:43:00,51.5,38.5,29.94,SW,221,5.0,8.0,61,0.00,,,0.00,Wunderground v.1.15,2013-01-28 07:43:00,
2013-01-28 00:48:00,51.4,38.8,29.94,SE,134,7.0,8.0,62,0.00,,,0.00,Wunderground v.1.15,2013-01-28 07:48:00,
2013-01-28 00:53:00,51.3,38.7,29.94,SSE,167,1.0,8.0,62,0.00,,,0.00,Wunderground v.1.15,2013-01-28 07:53:00,
2013-01-28 00:58:00,51.2,38.6,29.94,SSW,203,4.0,8.0,62,0.00,,,0.00,Wunderground v.1.15,2013-01-28 07:58:00,
2013-01-28 01:04:00,51.2,38.2,29.93,SE,124,5.0,5.0,61,0.00,,,0.00,Wunderground v.1.15,2013-01-28 08:04:00,
2013-01-28 01:09:00,51.5,38.1,29.94,SSE,163,6.0,13.0,60,0.00,,,0.00,Wunderground v.1.15,2013-01-28 08:09:00,
2013-01-28 01:15:00,51.6,37.7,29.93,SSW,204,3.0,8.0,59,0.00,,,0.00,Wunderground v.1.15,2013-01-28 08:15:00,
2013-01-28 01:20:00,51.6,37.7,29.94,SW,234,9.0,9.0,59,0.00,,,0.00,Wunderground v.1.15,2013-01-28 08:20:00,
2013-01-28 01:25:00,51.5,37.6,29.94,ESE,121,4.0,9.0,59,0.00,,,0.00,Wunderground v.1.15,2013-01-28 08:25:00,
2013-01-28 01:30:00,51.5,37.6,29.94,SSW,207,4.0,5.0,59,0.00,,,0.00,Wunderground v.1.15,2013-01-28 08:30:00,
2013-01-28 01:35:00,51.3,37.4,29.94,NW,315,2.0,5.0,59,0.00,,,0.00,Wunderground v.1.15,2013-01-28 08:35:00,
2013-01-28 01:41:00,51.0,37.6,29.94,WSW,250,0.0,4.0,60,0.00,,,0.00,Wunderground v.1.15,2013-01-28 08:41:00,
2013-01-28 01:46:00,50.8,37.8,29.94,West,280,2.0,5.0,61,0.00,,,0.00,Wunderground v.1.15,2013-01-28 08:46:00,
2013-01-28 01:51:00,50.6,38.1,29.94,ESE,106,2.0,3.0,62,0.00,,,0.00,Wunderground v.1.15,2013-01-28 08:51:00,
2013-01-28 01:57:00,50.3,37.8,29.94,SE,142,0.0,6.0,62,0.00,,,0.00,Wunderground v.1.15,2013-01-28 08:57:00,
2013-01-28 02:02:00,50.0,37.9,29.94,SSE,148,0.0,1.0,63,0.00,,,0.00,Wunderground v.1.15,2013-01-28 09:02:00,
2013-01-28 02:07:00,49.8,37.7,29.94,SE,124,0.0,2.0,63,0.00,,,0.00,Wunderground v.1.15,2013-01-28 09:07:00,
2013-01-28 02:12:00,49.5,37.8,29.95,SE,127,0.0,1.0,64,0.00,,,0.00,Wunderground v.1.15,2013-01-28 09:12:00,
2013-01-28 02:17:00,49.5,38.2,29.95,ESE,121,1.0,3.0,65,0.00,,,0.00,Wunderground v.1.15,2013-01-28 09:17:00,
2013-01-28 02:23:00,49.2,37.9,29.95,ESE,119,1.0,2.0,65,0.00,,,0.00,Wunderground v.1.15,2013-01-28 09:23:00,
2013-01-28 02:28:00,49.1,38.2,29.95,ESE,122,0.0,3.0,66,0.00,,,0.00,Wunderground v.1.15,2013-01-28 09:28:00,
2013-01-28 02:33:00,49.1,37.8,29.94,SE,124,0.0,3.0,65,0.00,,,0.00,Wunderground v.1.15,2013-01-28 09:33:00,
2013-01-28 02:38:00,48.8,38.3,29.94,WSW,253,1.0,3.0,67,0.00,,,0.00,Wunderground v.1.15,2013-01-28 09:38:00,
2013-01-28 02:44:00,48.5,38.0,29.94,ESE,108,0.0,1.0,67,0.00,,,0.00,Wunderground v.1.15,2013-01-28 09:44:00,
2013-01-28 02:49:00,48.3,37.8,29.94,South,190,0.0,2.0,67,0.00,,,0.00,Wunderground v.1.15,2013-01-28 09:49:00,
2013-01-28 02:54:00,48.4,37.6,29.94,SW,224,1.0,3.0,66,0.00,,,0.00,Wunderground v.1.15,2013-01-28 09:54:00,
2013-01-28 02:59:00,48.5,38.0,29.95,SSW,201,2.0,6.0,67,0.00,,,0.00,Wunderground v.1.15,2013-01-28 09:59:00,
2013-01-28 03:04:00,48.3,37.8,29.94,SSW,200,3.0,7.0,67,0.00,,,0.00,Wunderground v.1.15,2013-01-28 10:04:00,
2013-01-28 03:09:00,48.1,38.0,29.95,SSW,198,5.0,9.0,68,0.00,,,0.00,Wunderground v.1.15,2013-01-28 10:09:00,
2013-01-28 03:14:00,47.9,37.8,29.95,SW,235,0.0,6.0,68,0.00,,,0.00,Wunderground v.1.15,2013-01-28 10:14:00,
2013-01-28 03:19:00,47.7,38.0,29.95,SSE,167,6.0,7.0,69,0.00,,,0.00,Wunderground v.1.15,2013-01-28 10:19:00,
2013-01-28 03:24:00,47.7,37.7,29.94,WNW,284,2.0,9.0,68,0.00,,,0.00,Wunderground v.1.15,2013-01-28 10:24:00,
2013-01-28 03:29:00,47.6,37.6,29.95,ESE,111,2.0,9.0,68,0.00,,,0.00,Wunderground v.1.15,2013-01-28 10:29:00,
2013-01-28 03:34:00,47.5,37.5,29.95,WSW,242,0.0,6.0,68,0.00,,,0.00,Wunderground v.1.15,2013-01-28 10:34:00,
2013-01-28 03:39:00,47.3,37.3,29.95,WSW,256,1.0,6.0,68,0.00,,,0.00,Wunderground v.1.15,2013-01-28 10:39:00,
2013-01-28 03:44:00,47.2,37.5,29.96,SE,132,1.0,5.0,69,0.00,,,0.00,Wunderground v.1.15,2013-01-28 10:44:00,
2013-01-28 03:49:00,47.0,37.4,29.95,SW,219,0.0,6.0,69,0.00,,,0.00,Wunderground v.1.15,2013-01-28 10:49:00,
2013-01-28 03:54:00,46.8,37.2,29.96,WSW,254,6.0,6.0,69,0.00,,,0.00,Wunderground v.1.15,2013-01-28 10:54:00,
2013-01-28 03:59:00,46.5,37.2,29.95,WSW,255,0.0,7.0,70,0.00,,,0.00,Wunderground v.1.15,2013-01-28 10:59:00,
2013-01-28 04:05:00,46.2,37.0,29.95,SSE,153,1.0,5.0,70,0.00,,,0.00,Wunderground v.1.15,2013-01-28 11:05:00,
2013-01-28 04:10:00,46.0,37.1,29.95,SE,125,1.0,5.0,71,0.00,,,0.00,Wunderground v.1.15,2013-01-28 11:10:00,
2013-01-28 04:15:00,45.7,36.8,29.95,SSW,197,1.0,5.0,71,0.00,,,0.00,Wunderground v.1.15,2013-01-28 11:15:00,
2013-01-28 04:20:00,45.6,36.7,29.95,SSW,192,0.0,7.0,71,0.00,,,0.00,Wunderground v.1.15,2013-01-28 11:20:00,
2013-01-28 04:25:00,45.6,37.1,29.95,South,179,7.0,9.0,72,0.00,,,0.00,Wunderground v.1.15,2013-01-28 11:25:00,
2013-01-28 04:30:00,45.6,37.4,29.95,SSE,153,2.0,2.0,73,0.00,,,0.00,Wunderground v.1.15,2013-01-28 11:30:00,
2013-01-28 04:35:00,45.6,37.4,29.95,SSE,158,2.0,6.0,73,0.00,,,0.00,Wunderground v.1.15,2013-01-28 11:35:00,
2013-01-28 04:40:00,45.8,37.3,29.95,West,260,2.0,2.0,72,0.00,,,0.00,Wunderground v.1.15,2013-01-28 11:40:00,
2013-01-28 04:45:00,45.9,37.0,29.95,WSW,250,1.0,4.0,71,0.00,,,0.00,Wunderground v.1.15,2013-01-28 11:45:00,
2013-01-28 04:50:00,45.4,36.9,29.96,NNW,335,2.0,2.0,72,0.00,,,0.00,Wunderground v.1.15,2013-01-28 11:50:00,
2013-01-28 04:55:00,43.9,36.5,29.96,WSW,238,1.0,3.0,75,0.00,,,0.00,Wunderground v.1.15,2013-01-28 11:55:00,
2013-01-28 05:00:00,44.0,36.9,29.96,SW,218,1.0,1.0,76,0.00,,,0.00,Wunderground v.1.15,2013-01-28 12:00:00,
2013-01-28 05:06:00,43.9,36.8,29.96,SSE,148,0.0,1.0,76,0.00,,,0.00,Wunderground v.1.15,2013-01-28 12:06:00,
2013-01-28 05:11:00,43.9,36.5,29.96,SSW,195,0.0,2.0,75,0.00,,,0.00,Wunderground v.1.15,2013-01-28 12:11:00,
2013-01-28 05:16:00,43.9,36.5,29.96,South,183,3.0,3.0,75,0.00,,,0.00,Wunderground v.1.15,2013-01-28 12:16:00,
2013-01-28 05:21:00,44.0,36.2,29.96,SSE,167,1.0,4.0,74,0.00,,,0.00,Wunderground v.1.15,2013-01-28 12:21:00,
2013-01-28 05:26:00,44.1,36.0,29.97,SSW,201,0.0,4.0,73,0.00,,,0.00,Wunderground v.1.15,2013-01-28 12:26:00,
2013-01-28 05:31:00,44.1,36.0,29.97,WNW,302,1.0,1.0,73,0.00,,,0.00,Wunderground v.1.15,2013-01-28 12:31:00,
2013-01-28 05:36:00,43.9,35.8,29.97,SSW,205,0.0,1.0,73,0.00,,,0.00,Wunderground v.1.15,2013-01-28 12:36:00,
2013-01-28 05:41:00,43.8,35.7,29.97,South,177,1.0,1.0,73,0.00,,,0.00,Wunderground v.1.15,2013-01-28 12:41:00,
2013-01-28 05:46:00,43.8,36.0,29.97,South,177,0.0,2.0,74,0.00,,,0.00,Wunderground v.1.15,2013-01-28 12:46:00,
2013-01-28 05:51:00,43.7,36.0,29.97,SSE,163,1.0,1.0,74,0.00,,,0.00,Wunderground v.1.15,2013-01-28 12:51:00,
2013-01-28 05:56:00,43.5,35.8,29.96,SSW,203,1.0,2.0,74,0.00,,,0.00,Wunderground v.1.15,2013-01-28 12:56:00,
2013-01-28 06:01:00,43.4,36.0,29.96,SSW,208,1.0,1.0,75,0.00,,,0.00,Wunderground v.1.15,2013-01-28 13:01:00,
2013-01-28 06:06:00,43.2,35.8,29.96,ESE,116,1.0,3.0,75,0.00,,,0.00,Wunderground v.1.15,2013-01-28 13:06:00,
2013-01-28 06:11:00,43.2,35.8,29.96,SSE,165,1.0,1.0,75,0.00,,,0.00,Wunderground v.1.15,2013-01-28 13:11:00,
2013-01-28 06:16:00,43.1,35.7,29.96,SE,128,1.0,1.0,75,0.00,,,0.00,Wunderground v.1.15,2013-01-28 13:16:00,
2013-01-28 06:21:00,43.3,35.9,29.96,ESE,113,1.0,2.0,75,0.00,,,0.00,Wunderground v.1.15,2013-01-28 13:21:00,
2013-01-28 06:26:00,43.5,35.8,29.96,East,98,0.0,2.0,74,0.00,,,0.00,Wunderground v.1.15,2013-01-28 13:26:00,
2013-01-28 06:31:00,43.6,35.5,29.96,ESE,116,1.0,1.0,73,0.00,,,0.00,Wunderground v.1.15,2013-01-28 13:31:00,
2013-01-28 06:36:00,43.6,35.9,29.97,SSE,167,0.0,2.0,74,0.00,,,0.00,Wunderground v.1.15,2013-01-28 13:36:00,
2013-01-28 06:41:00,43.4,35.7,29.97,SSW,195,0.0,2.0,74,0.00,,,0.00,Wunderground v.1.15,2013-01-28 13:41:00,
2013-01-28 06:46:00,43.4,35.7,29.98,South,190,4.0,4.0,74,0.00,,,0.00,Wunderground v.1.15,2013-01-28 13:46:00,
2013-01-28 06:51:00,43.5,35.8,29.98,SE,146,2.0,4.0,74,0.00,,,0.00,Wunderground v.1.15,2013-01-28 13:51:00,
2013-01-28 06:56:00,43.5,35.8,29.98,SSW,200,1.0,4.0,74,0.00,,,0.00,Wunderground v.1.15,2013-01-28 13:56:00,
2013-01-28 07:01:00,43.5,35.8,29.99,SSW,211,0.0,2.0,74,0.00,,,0.00,Wunderground v.1.15,2013-01-28 14:01:00,
2013-01-28 07:06:00,43.4,35.7,29.99,SW,219,0.0,3.0,74,0.00,,,0.00,Wunderground v.1.15,2013-01-28 14:06:00,
2013-01-28 07:11:00,43.3,35.6,29.99,SSW,198,0.0,2.0,74,0.00,,,0.00,Wunderground v.1.15,2013-01-28 14:11:00,
2013-01-28 07:16:00,43.2,35.8,30.00,SSE,155,0.0,3.0,75,0.00,,,0.00,Wunderground v.1.15,2013-01-28 14:16:00,
2013-01-28 07:21:00,43.2,35.8,30.00,SE,124,0.0,2.0,75,0.00,,,0.00,Wunderground v.1.15,2013-01-28 14:21:00,
2013-01-28 07:26:00,43.1,35.7,30.00,SSW,204,0.0,2.0,75,0.00,,,0.00,Wunderground v.1.15,2013-01-28 14:26:00,
2013-01-28 07:31:00,43.0,36.0,30.00,ESE,113,0.0,1.0,76,0.00,,,0.00,Wunderground v.1.15,2013-01-28 14:31:00,
2013-01-28 07:36:00,42.9,36.2,29.99,SE,125,2.0,4.0,77,0.00,,,0.00,Wunderground v.1.15,2013-01-28 14:36:00,
2013-01-28 07:41:00,43.1,36.4,29.99,SE,138,1.0,4.0,77,0.00,,,0.00,Wunderground v.1.15,2013-01-28 14:41:00,
2013-01-28 07:46:00,43.3,36.6,30.00,SSW,211,0.0,4.0,77,0.00,,,0.00,Wunderground v.1.15,2013-01-28 14:46:00,
2013-01-28 07:51:00,43.6,36.5,29.99,South,188,3.0,4.0,76,0.00,,,0.00,Wunderground v.1.15,2013-01-28 14:51:00,
2013-01-28 07:56:00,43.9,36.8,29.99,SSE,163,2.0,4.0,76,0.00,,,0.00,Wunderground v.1.15,2013-01-28 14:56:00,
2013-01-28 08:02:00,43.9,36.8,30.00,SW,224,0.0,1.0,76,0.00,,,0.00,Wunderground v.1.15,2013-01-28 15:02:00,
2013-01-28 08:07:00,44.2,37.1,30.00,West,267,0.0,2.0,76,0.00,,,0.00,Wunderground v.1.15,2013-01-28 15:07:00,
2013-01-28 08:12:00,44.4,37.0,30.00,WSW,245,0.0,2.0,75,0.00,,,0.00,Wunderground v.1.15,2013-01-28 15:12:00,
2013-01-28 08:17:00,44.8,37.4,30.00,North,350,0.0,2.0,75,0.00,,,0.00,Wunderground v.1.15,2013-01-28 15:17:00,
2013-01-28 08:22:00,44.8,37.4,30.00,ENE,68,0.0,2.0,75,0.00,,,0.00,Wunderground v.1.15,2013-01-28 15:22:00,
2013-01-28 08:27:00,45.3,38.2,30.00,NNE,30,3.0,3.0,76,0.00,,,0.00,Wunderground v.1.15,2013-01-28 15:27:00,
2013-01-28 08:32:00,45.5,38.4,30.01,NNE,13,0.0,2.0,76,0.00,,,0.00,Wunderground v.1.15,2013-01-28 15:32:00,
2013-01-28 08:37:00,46.1,37.2,30.01,NNW,338,0.0,2.0,71,0.00,,,0.00,Wunderground v.1.15,2013-01-28 15:37:00,
2013-01-28 08:42:00,47.2,37.9,30.01,South,184,0.0,1.0,70,0.00,,,0.00,Wunderground v.1.15,2013-01-28 15:42:00,
2013-01-28 08:47:00,48.3,37.1,30.01,SSW,193,3.0,4.0,65,0.00,,,0.00,Wunderground v.1.15,2013-01-28 15:47:00,
2013-01-28 08:52:00,48.5,36.5,30.01,SW,218,4.0,4.0,63,0.00,,,0.00,Wunderground v.1.15,2013-01-28 15:52:00,
2013-01-28 08:57:00,48.3,35.9,30.01,SSW,210,1.0,6.0,62,0.00,,,0.00,Wunderground v.1.15,2013-01-28 15:57:00,
2013-01-28 09:02:00,48.6,36.2,30.01,SW,214,2.0,4.0,62,0.00,,,0.00,Wunderground v.1.15,2013-01-28 16:02:00,
2013-01-28 09:07:00,48.8,36.4,30.01,SW,222,2.0,5.0,62,0.00,,,0.00,Wunderground v.1.15,2013-01-28 16:07:00,
2013-01-28 09:12:00,48.9,36.9,30.01,WSW,242,2.0,2.0,63,0.00,,,0.00,Wunderground v.1.15,2013-01-28 16:12:00,
2013-01-28 09:17:00,49.4,36.9,30.02,SW,222,2.0,5.0,62,0.00,,,0.00,Wunderground v.1.15,2013-01-28 16:17:00,
2013-01-28 09:22:00,49.5,37.0,30.02,SSE,150,0.0,3.0,62,0.00,,,0.00,Wunderground v.1.15,2013-01-28 16:22:00,
2013-01-28 09:27:00,50.5,38.0,30.02,ESE,117,0.0,3.0,62,0.00,,,0.00,Wunderground v.1.15,2013-01-28 16:27:00,
2013-01-28 09:32:00,51.4,38.0,30.02,South,174,0.0,1.0,60,0.00,,,0.00,Wunderground v.1.15,2013-01-28 16:32:00,
2013-01-28 09:37:00,51.8,38.3,30.02,South,183,0.0,3.0,60,0.00,,,0.00,Wunderground v.1.15,2013-01-28 16:37:00,
2013-01-28 09:42:00,52.2,37.9,30.02,SSE,149,1.0,3.0,58,0.00,,,0.00,Wunderground v.1.15,2013-01-28 16:42:00,
2013-01-28 09:47:00,52.9,38.1,30.01,SE,146,1.0,3.0,57,0.00,,,0.00,Wunderground v.1.15,2013-01-28 16:47:00,
2013-01-28 09:52:00,53.5,37.3,30.02,ESE,120,1.0,1.0,54,0.00,,,0.00,Wunderground v.1.15,2013-01-28 16:52:00,
2013-01-28 09:57:00,53.9,37.6,30.02,SE,127,0.0,3.0,54,0.00,,,0.00,Wunderground v.1.15,2013-01-28 16:57:00,
2013-01-28 10:02:00,54.2,36.5,30.02,South,180,0.0,2.0,51,0.00,,,0.00,Wunderground v.1.15,2013-01-28 17:02:00,
2013-01-28 10:07:00,54.4,35.1,30.02,SE,141,0.0,2.0,48,0.00,,,0.00,Wunderground v.1.15,2013-01-28 17:07:00,
2013-01-28 10:12:00,53.5,35.3,30.02,South,190,3.0,3.0,50,0.00,,,0.00,Wunderground v.1.15,2013-01-28 17:12:00,
2013-01-28 10:17:00,54.0,35.3,30.02,SSE,167,2.0,3.0,49,0.00,,,0.00,Wunderground v.1.15,2013-01-28 17:17:00,
2013-01-28 10:22:00,54.7,34.8,30.02,SSE,153,0.0,4.0,47,0.00,,,0.00,Wunderground v.1.15,2013-01-28 17:22:00,
2013-01-28 10:27:00,54.5,34.7,30.03,SSE,150,2.0,4.0,47,0.00,,,0.00,Wunderground v.1.15,2013-01-28 17:27:00,
2013-01-28 10:32:00,54.8,36.5,30.03,NNW,333,0.0,1.0,50,0.00,,,0.00,Wunderground v.1.15,2013-01-28 17:32:00,
2013-01-28 10:37:00,54.7,35.4,30.03,West,276,0.0,3.0,48,0.00,,,0.00,Wunderground v.1.15,2013-01-28 17:37:00,
2013-01-28 10:43:00,54.3,33.9,30.04,WNW,289,1.0,5.0,46,0.00,,,0.00,Wunderground v.1.15,2013-01-28 17:43:00,
2013-01-28 10:48:00,54.1,34.8,30.04,WNW,290,3.0,6.0,48,0.00,,,0.00,Wunderground v.1.15,2013-01-28 17:48:00,
2013-01-28 10:53:00,54.2,35.4,30.04,WNW,302,2.0,6.0,49,0.00,,,0.00,Wunderground v.1.15,2013-01-28 17:53:00,
2013-01-28 10:58:00,54.2,33.9,30.04,West,266,3.0,8.0,46,0.00,,,0.00,Wunderground v.1.15,2013-01-28 17:58:00,
2013-01-28 11:03:00,54.3,34.5,30.04,WNW,284,3.0,6.0,47,0.00,,,0.00,Wunderground v.1.15,2013-01-28 18:03:00,
2013-01-28 11:08:00,54.7,33.8,30.04,East,82,0.0,6.0,45,0.00,,,0.00,Wunderground v.1.15,2013-01-28 18:08:00,
2013-01-28 11:13:00,55.8,37.4,30.04,South,181,6.0,6.0,50,0.00,,,0.00,Wunderground v.1.15,2013-01-28 18:13:00,
2013-01-28 11:18:00,56.5,37.0,30.04,West,261,1.0,6.0,48,0.00,,,0.00,Wunderground v.1.15,2013-01-28 18:18:00,
2013-01-28 11:23:00,56.2,36.2,30.04,SE,141,1.0,3.0,47,0.00,,,0.00,Wunderground v.1.15,2013-01-28 18:23:00,
2013-01-28 11:28:00,56.7,35.6,30.04,SW,222,1.0,4.0,45,0.00,,,0.00,Wunderground v.1.15,2013-01-28 18:28:00,
2013-01-28 11:33:00,56.3,34.6,30.04,WSW,257,4.0,6.0,44,0.00,,,0.00,Wunderground v.1.15,2013-01-28 18:33:00,
2013-01-28 11:38:00,55.6,34.6,30.04,West,263,4.0,7.0,45,0.00,,,0.00,Wunderground v.1.15,2013-01-28 18:38:00,
2013-01-28 11:43:00,55.6,34.6,30.04,West,273,1.0,4.0,45,0.00,,,0.00,Wunderground v.1.15,2013-01-28 18:43:00,
2013-01-28 11:48:00,55.6,34.6,30.04,WNW,302,2.0,7.0,45,0.00,,,0.00,Wunderground v.1.15,2013-01-28 18:48:00,
2013-01-28 11:53:00,55.9,33.7,30.04,West,266,7.0,12.0,43,0.00,,,0.00,Wunderground v.1.15,2013-01-28 18:53:00,
2013-01-28 11:58:00,55.6,32.2,30.04,WNW,298,3.0,12.0,41,0.00,,,0.00,Wunderground v.1.15,2013-01-28 18:58:00,
2013-01-28 12:03:00,55.9,31.9,30.04,WNW,283,10.0,12.0,40,0.00,,,0.00,Wunderground v.1.15,2013-01-28 19:03:00,
2013-01-28 12:08:00,56.0,32.6,30.04,NW,305,5.0,12.0,41,0.00,,,0.00,Wunderground v.1.15,2013-01-28 19:08:00,
2013-01-28 12:13:00,56.2,32.2,30.04,West,278,6.0,9.0,40,0.00,,,0.00,Wunderground v.1.15,2013-01-28 19:13:00,
2013-01-28 12:18:00,56.0,32.0,30.04,WNW,288,7.0,15.0,40,0.00,,,0.00,Wunderground v.1.15,2013-01-28 19:18:00,
2013-01-28 12:23:00,56.1,32.1,30.04,West,271,5.0,11.0,40,0.00,,,0.00,Wunderground v.1.15,2013-01-28 19:23:00,
2013-01-28 12:28:00,56.5,33.1,30.04,WSW,255,11.0,13.0,41,0.00,,,0.00,Wunderground v.1.15,2013-01-28 19:28:00,
2013-01-28 12:33:00,56.5,31.8,30.04,WSW,240,4.0,10.0,39,0.00,,,0.00,Wunderground v.1.15,2013-01-28 19:33:00,
2013-01-28 12:38:00,56.7,32.0,30.04,West,276,3.0,10.0,39,0.00,,,0.00,Wunderground v.1.15,2013-01-28 19:38:00,
2013-01-28 12:43:00,56.9,31.5,30.03,NW,307,5.0,10.0,38,0.00,,,0.00,Wunderground v.1.15,2013-01-28 19:43:00,
2013-01-28 12:48:00,57.1,32.4,30.03,WNW,288,4.0,12.0,39,0.00,,,0.00,Wunderground v.1.15,2013-01-28 19:48:00,
2013-01-28 12:53:00,57.4,32.0,30.03,SW,225,4.0,9.0,38,0.00,,,0.00,Wunderground v.1.15,2013-01-28 19:53:00,
2013-01-28 12:58:00,57.2,31.1,30.03,NW,309,7.0,13.0,37,0.00,,,0.00,Wunderground v.1.15,2013-01-28 19:58:00,
2013-01-28 13:03:00,57.2,31.8,30.03,WNW,284,4.0,8.0,38,0.00,,,0.00,Wunderground v.1.15,2013-01-28 20:03:00,
2013-01-28 13:08:00,57.4,29.9,30.03,NW,313,6.0,12.0,35,0.00,,,0.00,Wunderground v.1.15,2013-01-28 20:08:00,
2013-01-28 13:13:00,57.6,31.5,30.02,WNW,288,7.0,14.0,37,0.00,,,0.00,Wunderground v.1.15,2013-01-28 20:13:00,
2013-01-28 13:18:00,57.3,31.2,30.02,WSW,255,6.0,14.0,37,0.00,,,0.00,Wunderground v.1.15,2013-01-28 20:18:00,
2013-01-28 13:24:00,57.8,30.3,30.02,West,276,3.0,13.0,35,0.00,,,0.00,Wunderground v.1.15,2013-01-28 20:24:00,
2013-01-28 13:29:00,58.1,30.6,30.02,WNW,293,11.0,13.0,35,0.00,,,0.00,Wunderground v.1.15,2013-01-28 20:29:00,
2013-01-28 13:34:00,57.6,30.1,30.02,West,259,6.0,9.0,35,0.00,,,0.00,Wunderground v.1.15,2013-01-28 20:34:00,
2013-01-28 13:39:00,57.5,30.7,30.02,West,267,10.0,11.0,36,0.00,,,0.00,Wunderground v.1.15,2013-01-28 20:39:00,
2013-01-28 13:44:00,57.6,30.8,30.02,West,262,11.0,15.0,36,0.00,,,0.00,Wunderground v.1.15,2013-01-28 20:44:00,
2013-01-28 13:49:00,57.9,29.7,30.02,WNW,302,9.0,15.0,34,0.00,,,0.00,Wunderground v.1.15,2013-01-28 20:49:00,
2013-01-28 13:54:00,58.3,30.7,30.02,WNW,288,14.0,18.0,35,0.00,,,0.00,Wunderground v.1.15,2013-01-28 20:54:00,
2013-01-28 13:59:00,58.4,29.4,30.02,WNW,285,8.0,18.0,33,0.00,,,0.00,Wunderground v.1.15,2013-01-28 20:59:00,
2013-01-28 14:04:00,58.4,28.6,30.01,West,269,8.0,15.0,32,0.00,,,0.00,Wunderground v.1.15,2013-01-28 21:04:00,
2013-01-28 14:09:00,58.3,27.8,30.02,WNW,295,16.0,22.0,31,0.00,,,0.00,Wunderground v.1.15,2013-01-28 21:09:00,
2013-01-28 14:14:00,58.7,29.6,30.02,WSW,253,14.0,18.0,33,0.00,,,0.00,Wunderground v.1.15,2013-01-28 21:14:00,
2013-01-28 14:19:00,59.0,30.6,30.01,West,259,11.0,18.0,34,0.00,,,0.00,Wunderground v.1.15,2013-01-28 21:19:00,
2013-01-28 14:24:00,58.6,28.8,30.02,NW,307,9.0,15.0,32,0.00,,,0.00,Wunderground v.1.15,2013-01-28 21:24:00,
2013-01-28 14:29:00,58.2,27.7,30.02,WNW,285,10.0,18.0,31,0.00,,,0.00,Wunderground v.1.15,2013-01-28 21:29:00,
2013-01-28 14:34:00,58.3,28.5,30.02,WNW,284,11.0,17.0,32,0.00,,,0.00,Wunderground v.1.15,2013-01-28 21:34:00,
2013-01-28 14:39:00,57.8,28.9,30.02,SW,233,12.0,19.0,33,0.00,,,0.00,Wunderground v.1.15,2013-01-28 21:39:00,
2013-01-28 14:44:00,57.4,29.9,30.02,NW,307,10.0,14.0,35,0.00,,,0.00,Wunderground v.1.15,2013-01-28 21:44:00,
2013-01-28 14:49:00,57.2,30.5,30.02,NW,305,9.0,14.0,36,0.00,,,0.00,Wunderground v.1.15,2013-01-28 21:49:00,
2013-01-28 14:54:00,57.1,29.0,30.02,WNW,283,9.0,15.0,34,0.00,,,0.00,Wunderground v.1.15,2013-01-28 21:54:00,
2013-01-28 14:59:00,57.1,28.2,30.02,WNW,284,12.0,16.0,33,0.00,,,0.00,Wunderground v.1.15,2013-01-28 21:59:00,
2013-01-28 15:04:00,57.3,28.4,30.02,NW,309,5.0,14.0,33,0.00,,,0.00,Wunderground v.1.15,2013-01-28 22:04:00,
2013-01-28 15:09:00,57.2,29.8,30.02,West,262,7.0,14.0,35,0.00,,,0.00,Wunderground v.1.15,2013-01-28 22:09:00,
2013-01-28 15:14:00,57.1,28.2,30.02,West,269,9.0,13.0,33,0.00,,,0.00,Wunderground v.1.15,2013-01-28 22:14:00,
2013-01-28 15:19:00,57.3,29.1,30.02,NW,307,13.0,14.0,34,0.00,,,0.00,Wunderground v.1.15,2013-01-28 22:19:00,
2013-01-28 15:24:00,57.3,29.1,30.02,West,278,12.0,15.0,34,0.00,,,0.00,Wunderground v.1.15,2013-01-28 22:24:00,
2013-01-28 15:29:00,57.3,27.7,30.02,WNW,290,9.0,16.0,32,0.00,,,0.00,Wunderground v.1.15,2013-01-28 22:29:00,
2013-01-28 15:34:00,57.2,29.1,30.02,NW,304,11.0,14.0,34,0.00,,,0.00,Wunderground v.1.15,2013-01-28 22:34:00,
2013-01-28 15:39:00,57.2,29.1,30.02,West,274,6.0,14.0,34,0.00,,,0.00,Wunderground v.1.15,2013-01-28 22:39:00,
2013-01-28 15:44:00,57.3,29.1,30.02,NW,307,7.0,11.0,34,0.00,,,0.00,Wunderground v.1.15,2013-01-28 22:44:00,
2013-01-28 15:49:00,57.4,27.0,30.02,WNW,283,5.0,11.0,31,0.00,,,0.00,Wunderground v.1.15,2013-01-28 22:49:00,
2013-01-28 15:54:00,57.4,28.5,30.02,NW,309,8.0,11.0,33,0.00,,,0.00,Wunderground v.1.15,2013-01-28 22:54:00,
2013-01-28 15:59:00,57.2,27.6,30.02,West,267,9.0,14.0,32,0.00,,,0.00,Wunderground v.1.15,2013-01-28 22:59:00,
2013-01-28 16:04:00,57.2,26.0,30.02,NW,309,10.0,14.0,30,0.00,,,0.00,Wunderground v.1.15,2013-01-28 23:04:00,
2013-01-28 16:09:00,57.1,26.7,30.02,West,262,3.0,17.0,31,0.00,,,0.00,Wunderground v.1.15,2013-01-28 23:09:00,
2013-01-28 16:14:00,57.0,26.6,30.01,NW,323,8.0,12.0,31,0.00,,,0.00,Wunderground v.1.15,2013-01-28 23:14:00,
2013-01-28 16:20:00,57.2,26.0,30.02,NW,306,10.0,14.0,30,0.00,,,0.00,Wunderground v.1.15,2013-01-28 23:20:00,
2013-01-28 16:25:00,57.6,26.4,30.01,NW,304,5.0,16.0,30,0.00,,,0.00,Wunderground v.1.15,2013-01-28 23:25:00,
2013-01-28 16:30:00,57.7,25.6,30.01,WNW,301,7.0,19.0,29,0.00,,,0.00,Wunderground v.1.15,2013-01-28 23:30:00,
2013-01-28 16:35:00,57.5,26.3,30.02,North,359,7.0,14.0,30,0.00,,,0.00,Wunderground v.1.15,2013-01-28 23:35:00,
2013-01-28 16:40:00,57.4,28.5,30.01,SE,127,10.0,10.0,33,0.00,,,0.00,Wunderground v.1.15,2013-01-28 23:40:00,
2013-01-28 16:45:00,57.2,24.3,30.01,NW,326,7.0,18.0,28,0.00,,,0.00,Wunderground v.1.15,2013-01-28 23:45:00,
2013-01-28 16:50:00,56.7,24.8,30.01,West,273,12.0,12.0,29,0.00,,,0.00,Wunderground v.1.15,2013-01-28 23:50:00,
2013-01-28 16:55:00,56.5,25.4,30.02,NW,304,12.0,19.0,30,0.00,,,0.00,Wunderground v.1.15,2013-01-28 23:55:00,
2013-01-28 17:00:00,56.5,24.6,30.02,WNW,294,10.0,12.0,29,0.00,,,0.00,Wunderground v.1.15,2013-01-29 00:00:00,
2013-01-28 17:05:00,56.5,24.6,30.02,WNW,302,11.0,16.0,29,0.00,,,0.00,Wunderground v.1.15,2013-01-29 00:05:00,
2013-01-28 17:10:00,56.4,26.1,30.02,West,281,7.0,11.0,31,0.00,,,0.00,Wunderground v.1.15,2013-01-29 00:10:00,
2013-01-28 17:15:00,56.5,25.4,30.02,NW,311,6.0,16.0,30,0.00,,,0.00,Wunderground v.1.15,2013-01-29 00:15:00,
2013-01-28 17:20:00,56.7,26.4,30.02,WNW,300,12.0,12.0,31,0.00,,,0.00,Wunderground v.1.15,2013-01-29 00:20:00,
2013-01-28 17:25:00,56.7,23.9,30.02,NW,314,9.0,19.0,28,0.00,,,0.00,Wunderground v.1.15,2013-01-29 00:25:00,
2013-01-28 17:30:00,56.5,23.7,30.02,WNW,297,9.0,11.0,28,0.00,,,0.00,Wunderground v.1.15,2013-01-29 00:30:00,
2013-01-28 17:35:00,56.0,23.3,30.02,NNE,16,11.0,17.0,28,0.00,,,0.00,Wunderground v.1.15,2013-01-29 00:35:00,
2013-01-28 17:40:00,55.8,23.1,30.02,NW,304,14.0,14.0,28,0.00,,,0.00,Wunderground v.1.15,2013-01-29 00:40:00,
2013-01-28 17:45:00,55.7,23.9,30.02,NW,309,10.0,14.0,29,0.00,,,0.00,Wunderground v.1.15,2013-01-29 00:45:00,
2013-01-28 17:50:00,55.4,23.6,30.02,WNW,298,11.0,15.0,29,0.00,,,0.00,Wunderground v.1.15,2013-01-29 00:50:00,
2013-01-28 17:55:00,54.8,25.5,30.03,NW,304,9.0,15.0,32,0.00,,,0.00,Wunderground v.1.15,2013-01-29 00:55:00,
2013-01-28 18:00:00,54.4,25.1,30.03,WNW,290,7.0,10.0,32,0.00,,,0.00,Wunderground v.1.15,2013-01-29 01:00:00,
2013-01-28 18:05:00,54.0,25.5,30.03,NW,314,4.0,11.0,33,0.00,,,0.00,Wunderground v.1.15,2013-01-29 01:05:00,
2013-01-28 18:10:00,53.4,26.4,30.03,NW,319,4.0,6.0,35,0.00,,,0.00,Wunderground v.1.15,2013-01-29 01:10:00,
2013-01-28 18:15:00,52.6,26.4,30.03,NW,320,5.0,7.0,36,0.00,,,0.00,Wunderground v.1.15,2013-01-29 01:15:00,
2013-01-28 18:20:00,52.5,26.9,30.03,NW,304,5.0,7.0,37,0.00,,,0.00,Wunderground v.1.15,2013-01-29 01:20:00,
2013-01-28 18:25:00,51.9,27.1,30.03,NW,305,5.0,7.0,38,0.00,,,0.00,Wunderground v.1.15,2013-01-29 01:25:00,
2013-01-28 18:31:00,51.6,26.8,30.03,West,281,4.0,5.0,38,0.00,,,0.00,Wunderground v.1.15,2013-01-29 01:31:00,
2013-01-28 18:36:00,51.5,26.7,30.04,NNE,16,4.0,8.0,38,0.00,,,0.00,Wunderground v.1.15,2013-01-29 01:36:00,
2013-01-28 18:41:00,51.2,27.1,30.04,NW,309,6.0,8.0,39,0.00,,,0.00,Wunderground v.1.15,2013-01-29 01:41:00,
2013-01-28 18:46:00,50.8,27.3,30.04,NW,309,6.0,8.0,40,0.00,,,0.00,Wunderground v.1.15,2013-01-29 01:46:00,
2013-01-28 18:51:00,50.5,27.0,30.04,NW,304,3.0,6.0,40,0.00,,,0.00,Wunderground v.1.15,2013-01-29 01:51:00,
2013-01-28 18:56:00,50.2,26.8,30.04,NW,315,3.0,6.0,40,0.00,,,0.00,Wunderground v.1.15,2013-01-29 01:56:00,
2013-01-28 19:01:00,50.2,26.8,30.04,NW,322,2.0,4.0,40,0.00,,,0.00,Wunderground v.1.15,2013-01-29 02:01:00,
2013-01-28 19:06:00,50.1,26.7,30.04,WNW,295,1.0,4.0,40,0.00,,,0.00,Wunderground v.1.15,2013-01-29 02:06:00,
2013-01-28 19:11:00,49.9,27.1,30.05,West,273,3.0,3.0,41,0.00,,,0.00,Wunderground v.1.15,2013-01-29 02:11:00,
2013-01-28 19:16:00,49.8,29.3,30.04,WNW,290,2.0,4.0,45,0.00,,,0.00,Wunderground v.1.15,2013-01-29 02:16:00,
2013-01-28 19:21:00,49.6,28.6,30.05,WNW,284,3.0,3.0,44,0.00,,,0.00,Wunderground v.1.15,2013-01-29 02:21:00,
2013-01-28 19:26:00,49.5,28.5,30.05,WSW,253,3.0,3.0,44,0.00,,,0.00,Wunderground v.1.15,2013-01-29 02:26:00,
2013-01-28 19:31:00,49.8,27.0,30.05,West,264,2.0,3.0,41,0.00,,,0.00,Wunderground v.1.15,2013-01-29 02:31:00,
2013-01-28 19:36:00,50.1,26.7,30.05,West,262,2.0,4.0,40,0.00,,,0.00,Wunderground v.1.15,2013-01-29 02:36:00,
2013-01-28 19:41:00,50.1,26.7,30.05,WNW,291,2.0,3.0,40,0.00,,,0.00,Wunderground v.1.15,2013-01-29 02:41:00,
2013-01-28 19:46:00,49.8,26.4,30.05,WNW,288,2.0,4.0,40,0.00,,,0.00,Wunderground v.1.15,2013-01-29 02:46:00,
2013-01-28 19:51:00,49.6,26.8,30.05,WNW,300,2.0,3.0,41,0.00,,,0.00,Wunderground v.1.15,2013-01-29 02:51:00,
2013-01-28 19:56:00,49.3,27.2,30.05,WNW,288,2.0,4.0,42,0.00,,,0.00,Wunderground v.1.15,2013-01-29 02:56:00,
2013-01-28 20:01:00,48.7,28.3,30.06,WSW,254,3.0,3.0,45,0.00,,,0.00,Wunderground v.1.15,2013-01-29 03:01:00,
2013-01-28 20:06:00,48.3,27.4,30.06,West,263,3.0,4.0,44,0.00,,,0.00,Wunderground v.1.15,2013-01-29 03:06:00,
2013-01-28 20:11:00,48.3,26.8,30.06,WSW,255,3.0,4.0,43,0.00,,,0.00,Wunderground v.1.15,2013-01-29 03:11:00,
2013-01-28 20:16:00,48.2,27.3,30.06,WSW,254,3.0,5.0,44,0.00,,,0.00,Wunderground v.1.15,2013-01-29 03:16:00,
2013-01-28 20:21:00,48.1,27.2,30.06,WSW,240,2.0,4.0,44,0.00,,,0.00,Wunderground v.1.15,2013-01-29 03:21:00,
2013-01-28 20:26:00,48.0,26.5,30.06,WSW,246,0.0,4.0,43,0.00,,,0.00,Wunderground v.1.15,2013-01-29 03:26:00,
2013-01-28 20:31:00,47.9,27.0,30.06,WSW,256,1.0,2.0,44,0.00,,,0.00,Wunderground v.1.15,2013-01-29 03:31:00,
2013-01-28 20:36:00,47.7,26.8,30.06,West,268,1.0,3.0,44,0.00,,,0.00,Wunderground v.1.15,2013-01-29 03:36:00,
2013-01-28 20:41:00,47.7,26.8,30.06,WNW,291,1.0,4.0,44,0.00,,,0.00,Wunderground v.1.15,2013-01-29 03:41:00,
2013-01-28 20:46:00,47.4,27.1,30.06,West,278,1.0,4.0,45,0.00,,,0.00,Wunderground v.1.15,2013-01-29 03:46:00,
2013-01-28 20:51:00,47.4,26.6,30.06,WSW,257,0.0,1.0,44,0.00,,,0.00,Wunderground v.1.15,2013-01-29 03:51:00,
2013-01-28 20:56:00,47.0,26.2,30.06,ESE,116,0.0,1.0,44,0.00,,,0.00,Wunderground v.1.15,2013-01-29 03:56:00,
2013-01-28 21:01:00,46.6,26.4,30.06,SSE,152,0.0,1.0,45,0.00,,,0.00,Wunderground v.1.15,2013-01-29 04:01:00,
2013-01-28 21:06:00,46.4,26.2,30.06,ESE,118,0.0,1.0,45,0.00,,,0.00,Wunderground v.1.15,2013-01-29 04:06:00,
2013-01-28 21:11:00,46.7,25.4,30.06,East,95,0.0,1.0,43,0.00,,,0.00,Wunderground v.1.15,2013-01-29 04:11:00,
2013-01-28 21:16:00,47.1,24.6,30.06,North,359,1.0,3.0,41,0.00,,,0.00,Wunderground v.1.15,2013-01-29 04:16:00,
2013-01-28 21:21:00,47.6,23.8,30.07,NW,318,1.0,2.0,39,0.00,,,0.00,Wunderground v.1.15,2013-01-29 04:21:00,
2013-01-28 21:26:00,47.4,24.3,30.07,NNW,333,0.0,2.0,40,0.00,,,0.00,Wunderground v.1.15,2013-01-29 04:26:00,
2013-01-28 21:31:00,47.3,24.8,30.07,NW,326,0.0,2.0,41,0.00,,,0.00,Wunderground v.1.15,2013-01-29 04:31:00,
2013-01-28 21:36:00,47.2,24.7,30.07,NW,316,1.0,2.0,41,0.00,,,0.00,Wunderground v.1.15,2013-01-29 04:36:00,
2013-01-28 21:41:00,47.1,25.2,30.07,NNW,330,1.0,2.0,42,0.00,,,0.00,Wunderground v.1.15,2013-01-29 04:41:00,
2013-01-28 21:46:00,47.0,25.1,30.08,NW,326,0.0,2.0,42,0.00,,,0.00,Wunderground v.1.15,2013-01-29 04:46:00,
2013-01-28 21:51:00,46.9,25.0,30.08,NW,318,3.0,3.0,42,0.00,,,0.00,Wunderground v.1.15,2013-01-29 04:51:00,
2013-01-28 21:56:00,46.8,25.5,30.08,NW,319,2.0,3.0,43,0.00,,,0.00,Wunderground v.1.15,2013-01-29 04:56:00,
2013-01-28 22:00:00,46.8,25.5,30.08,NW,316,2.0,2.0,43,0.00,,,0.00,Wunderground v.1.15,2013-01-29 05:00:00,
2013-01-28 22:01:00,46.8,25.5,30.08,NW,322,2.0,2.0,43,0.00,,,0.00,Wunderground v.1.15,2013-01-29 05:01:00,
2013-01-28 22:02:00,46.8,25.5,30.08,NNW,329,1.0,3.0,43,0.00,,,0.00,Wunderground v.1.15,2013-01-29 05:02:00,
2013-01-28 22:07:00,46.6,25.8,30.08,NW,308,1.0,3.0,44,0.00,,,0.00,Wunderground v.1.15,2013-01-29 05:07:00,
2013-01-28 22:12:00,46.5,25.7,30.08,NW,304,0.0,1.0,44,0.00,,,0.00,Wunderground v.1.15,2013-01-29 05:12:00,
2013-01-28 22:17:00,46.1,25.9,30.08,NW,304,0.0,1.0,45,0.00,,,0.00,Wunderground v.1.15,2013-01-29 05:17:00,
2013-01-28 22:22:00,45.5,25.4,30.08,NW,309,0.0,0.0,45,0.00,,,0.00,Wunderground v.1.15,2013-01-29 05:22:00,
2013-01-28 22:27:00,45.3,25.2,30.08,WNW,294,0.0,1.0,45,0.00,,,0.00,Wunderground v.1.15,2013-01-29 05:27:00,
2013-01-28 22:32:00,45.3,25.7,30.08,WNW,294,0.0,0.0,46,0.00,,,0.00,Wunderground v.1.15,2013-01-29 05:32:00,
2013-01-28 22:37:00,44.9,26.4,30.08,WNW,294,0.0,1.0,48,0.00,,,0.00,Wunderground v.1.15,2013-01-29 05:37:00,
2013-01-28 22:42:00,44.8,24.7,30.08,WNW,294,0.0,1.0,45,0.00,,,0.00,Wunderground v.1.15,2013-01-29 05:42:00,
2013-01-28 22:47:00,44.8,25.3,30.08,East,97,0.0,1.0,46,0.00,,,0.00,Wunderground v.1.15,2013-01-29 05:47:00,
2013-01-28 22:52:00,44.8,24.7,30.08,East,97,0.0,0.0,45,0.00,,,0.00,Wunderground v.1.15,2013-01-29 05:52:00,
2013-01-28 22:57:00,44.8,25.8,30.09,East,97,0.0,0.0,47,0.00,,,0.00,Wunderground v.1.15,2013-01-29 05:57:00,
2013-01-28 23:02:00,44.8,24.2,30.09,WNW,298,0.0,1.0,44,0.00,,,0.00,Wunderground v.1.15,2013-01-29 06:02:00,
2013-01-28 23:07:00,44.9,25.9,30.09,ENE,58,0.0,1.0,47,0.00,,,0.00,Wunderground v.1.15,2013-01-29 06:07:00,
2013-01-28 23:13:00,44.6,26.1,30.09,ESE,109,1.0,1.0,48,0.00,,,0.00,Wunderground v.1.15,2013-01-29 06:13:00,
2013-01-28 23:18:00,44.4,27.4,30.09,ESE,123,3.0,3.0,51,0.00,,,0.00,Wunderground v.1.15,2013-01-29 06:18:00,
2013-01-28 23:23:00,43.9,29.2,30.09,ESE,119,2.0,3.0,56,0.00,,,0.00,Wunderground v.1.15,2013-01-29 06:23:00,
2013-01-28 23:28:00,43.2,30.6,30.09,ESE,116,2.0,4.0,61,0.00,,,0.00,Wunderground v.1.15,2013-01-29 06:28:00,
2013-01-28 23:33:00,42.7,31.0,30.09,SE,127,1.0,2.0,63,0.00,,,0.00,Wunderground v.1.15,2013-01-29 06:33:00,
2013-01-28 23:38:00,42.7,31.0,30.09,SE,128,2.0,4.0,63,0.00,,,0.00,Wunderground v.1.15,2013-01-29 06:38:00,
2013-01-28 23:43:00,43.1,30.1,30.09,SE,126,2.0,2.0,60,0.00,,,0.00,Wunderground v.1.15,2013-01-29 06:43:00,
2013-01-28 23:48:00,43.5,30.5,30.09,ESE,121,1.0,2.0,60,0.00,,,0.00,Wunderground v.1.15,2013-01-29 06:48:00,
2013-01-28 23:53:00,43.5,30.9,30.09,SE,129,1.0,2.0,61,0.00,,,0.00,Wunderground v.1.15,2013-01-29 06:53:00,
2013-01-28 23:58:00,43.3,31.1,30.09,SE,136,1.0,2.0,62,0.00,,,0.00,Wunderground v.1.15,2013-01-29 06:58:00,